| time (UTC) | temp F | wind direction | speed MPH | gust MPH | rain 1hr in | rain 24hr in | rain mn in | humidity % | barometer mb |
| 20260503004727 | 41 | 8 | 0.0 | 0.0 | 0.00 | 0.00 | 0.00 | 57 | |
| 20260503004226 | 41 | 28 | 0.0 | 1.0 | 0.00 | 0.00 | 0.00 | 57 | |
| 20260503003723 | 42 | 17 | 0.0 | 1.0 | 0.00 | 0.00 | 0.00 | 56 | |
| 20260503003220 | 42 | 11 | 0.0 | 0.0 | 0.00 | 0.00 | 0.00 | 55 | |
| 20260503002716 | 42 | 38 | 1.0 | 2.0 | 0.00 | 0.00 | 0.00 | 55 | |
| 20260503002213 | 42 | 14 | 0.0 | 1.0 | 0.00 | 0.00 | 0.00 | 54 | |
| 20260503001709 | 43 | 8 | 0.0 | 1.0 | 0.00 | 0.00 | 0.00 | 54 | |
| 20260503001206 | 43 | 42 | 2.0 | 2.0 | 0.00 | 0.00 | 0.00 | 53 | |
| 20260503000704 | 43 | 43 | 2.0 | 3.0 | 0.00 | 0.00 | 0.00 | 52 | |
| 20260503000203 | 43 | 45 | 1.0 | 3.0 | 0.00 | 0.00 | 0.00 | 52 | |
| 20260502235658 | 44 | 25 | 0.0 | 5.0 | 0.00 | 0.00 | 0.00 | 52 | |
| 20260502235156 | 44 | 16 | 0.0 | 6.0 | 0.00 | 0.00 | 0.00 | 51 | |
| 20260502234651 | 44 | 28 | 3.0 | 6.0 | 0.00 | 0.00 | 0.00 | 51 | |
| 20260502234149 | 44 | 23 | 0.0 | 5.0 | 0.00 | 0.00 | 0.00 | 52 | |
| 20260502233644 | 44 | 49 | 3.0 | 7.0 | 0.00 | 0.00 | 0.00 | 51 | |
| 20260502233136 | 45 | 339 | 4.0 | 5.0 | 0.00 | 0.00 | 0.00 | 50 | |
| 20260502232632 | 44 | 117 | 3.0 | 6.0 | 0.00 | 0.00 | 0.00 | 51 | |
| 20260502232130 | 43 | 33 | 2.0 | 6.0 | 0.00 | 0.00 | 0.00 | 53 | |
| 20260502231626 | 43 | 355 | 4.0 | 7.0 | 0.00 | 0.00 | 0.00 | 52 | |
| 20260502231124 | 44 | 9 | 0.0 | 6.0 | 0.00 | 0.00 | 0.00 | 52 | |
| 20260502230622 | 44 | 61 | 1.0 | 3.0 | 0.00 | 0.00 | 0.00 | 53 | |
| 20260502230120 | 44 | 30 | 2.0 | 6.0 | 0.00 | 0.00 | 0.00 | 53 | |
| 20260502225615 | 44 | 23 | 2.0 | 8.0 | 0.00 | 0.00 | 0.00 | 55 | |
| 20260502225113 | 44 | 17 | 1.0 | 5.0 | 0.00 | 0.00 | 0.00 | 55 | |
| 20260502224609 | 44 | 28 | 3.0 | 7.0 | 0.00 | 0.00 | 0.00 | 53 | |
| 20260502224106 | 44 | 40 | 0.0 | 8.0 | 0.00 | 0.00 | 0.00 | 53 | |
| 20260502223604 | 44 | 54 | 3.0 | 6.0 | 0.00 | 0.00 | 0.00 | 52 | |
| 20260502223102 | 44 | 13 | 2.0 | 7.0 | 0.00 | 0.00 | 0.00 | 51 | |
| 20260502222559 | 44 | 7 | 0.0 | 3.0 | 0.00 | 0.00 | 0.00 | 52 | |
| 20260502222055 | 44 | 36 | 1.0 | 7.0 | 0.00 | 0.00 | 0.00 | 51 | |
| 20260502221551 | 44 | 90 | 4.0 | 7.0 | 0.00 | 0.00 | 0.00 | 51 | |
| 20260502221048 | 44 | 356 | 3.0 | 10.0 | 0.00 | 0.00 | 0.00 | 52 | |
| 20260502220544 | 45 | 72 | 5.0 | 7.0 | 0.00 | 0.00 | 0.00 | 54 | |
| 20260502220041 | 45 | 73 | 3.0 | 8.0 | 0.00 | 0.00 | 0.00 | 54 | |
| 20260502215538 | 44 | 0 | 2.0 | 3.0 | 0.00 | 0.00 | 0.00 | 55 | |
| 20260502215035 | 44 | 9 | 2.0 | 5.0 | 0.00 | 0.00 | 0.00 | 55 | |
| 20260502214532 | 44 | 354 | 0.0 | 5.0 | 0.00 | 0.00 | 0.00 | 56 | |
| 20260502214030 | 44 | 3 | 2.0 | 5.0 | 0.00 | 0.00 | 0.00 | 55 | |
| 20260502213526 | 44 | 55 | 1.0 | 2.0 | 0.00 | 0.00 | 0.00 | 56 | |
| 20260502213024 | 44 | 354 | 0.0 | 2.0 | 0.00 | 0.00 | 0.00 | 56 | |
| 20260502212523 | 44 | 36 | 1.0 | 5.0 | 0.00 | 0.00 | 0.00 | 56 | |
| 20260502212020 | 43 | 61 | 3.0 | 3.0 | 0.00 | 0.00 | 0.00 | 57 | |
| 20260502211515 | 43 | 322 | 0.0 | 3.0 | 0.00 | 0.00 | 0.00 | 60 | |
| 20260502211013 | 43 | 47 | 1.0 | 3.0 | 0.00 | 0.00 | 0.00 | 60 | |
| 20260502210509 | 43 | 5 | 1.0 | 6.0 | 0.00 | 0.00 | 0.00 | 61 | |
| 20260502210007 | 42 | 25 | 1.0 | 5.0 | 0.00 | 0.00 | 0.00 | 61 | |
| 20260502205503 | 42 | 7 | 0.0 | 6.0 | 0.00 | 0.00 | 0.00 | 63 | |
| 20260502205000 | 42 | 19 | 3.0 | 6.0 | 0.00 | 0.00 | 0.00 | 65 | |
| 20260502204457 | 42 | 311 | 2.0 | 5.0 | 0.00 | 0.00 | 0.00 | 65 | |
| 20260502203955 | 43 | 82 | 3.0 | 8.0 | 0.00 | 0.00 | 0.00 | 63 | |
| 20260502203451 | 43 | 64 | 6.0 | 9.0 | 0.00 | 0.00 | 0.00 | 62 | |
| 20260502202948 | 44 | 47 | 2.0 | 11.0 | 0.00 | 0.00 | 0.00 | 61 | |
| 20260502202445 | 44 | 46 | 5.0 | 8.0 | 0.00 | 0.00 | 0.00 | 55 | |
| 20260502201943 | 45 | 92 | 2.0 | 3.0 | 0.00 | 0.00 | 0.00 | 53 | |
| 20260502201438 | 44 | 49 | 1.0 | 2.0 | 0.00 | 0.00 | 0.00 | 52 | |
| 20260502200936 | 44 | 29 | 3.0 | 6.0 | 0.00 | 0.00 | 0.00 | 52 | |
| 20260502200431 | 44 | 29 | 3.0 | 8.0 | 0.00 | 0.00 | 0.00 | 51 | |
| 20260502195929 | 44 | 13 | 1.0 | 3.0 | 0.00 | 0.00 | 0.00 | 52 | |
| 20260502195426 | 44 | 7 | 1.0 | 3.0 | 0.00 | 0.00 | 0.00 | 52 | |
| 20260502194922 | 44 | 113 | 1.0 | 2.0 | 0.00 | 0.00 | 0.00 | 52 | |
| 20260502194419 | 44 | 345 | 3.0 | 3.0 | 0.00 | 0.00 | 0.00 | 51 | |
| 20260502193915 | 44 | 338 | 1.0 | 7.0 | 0.00 | 0.00 | 0.00 | 54 | |
| 20260502193413 | 44 | 341 | 0.0 | 3.0 | 0.00 | 0.00 | 0.00 | 55 | |
| 20260502192908 | 44 | 313 | 3.0 | 6.0 | 0.00 | 0.00 | 0.00 | 55 | |
| 20260502192405 | 44 | 36 | 2.0 | 5.0 | 0.00 | 0.00 | 0.00 | 55 | |
| 20260502191902 | 44 | 0 | 0.0 | 6.0 | 0.00 | 0.00 | 0.00 | 55 | |
| 20260502191400 | 44 | 81 | 1.0 | 6.0 | 0.00 | 0.00 | 0.00 | 56 | |
| 20260502190857 | 44 | 48 | 2.0 | 5.0 | 0.00 | 0.00 | 0.00 | 57 | |
| 20260502190354 | 44 | 34 | 3.0 | 5.0 | 0.00 | 0.00 | 0.00 | 56 | |
| 20260502185850 | 44 | 52 | 3.0 | 8.0 | 0.00 | 0.00 | 0.00 | 56 | |
| 20260502185346 | 45 | 1 | 2.0 | 7.0 | 0.00 | 0.00 | 0.00 | 55 | |
| 20260502184843 | 45 | 351 | 0.0 | 1.0 | 0.00 | 0.00 | 0.00 | 55 | |
| 20260502184338 | 45 | 335 | 0.0 | 1.0 | 0.00 | 0.00 | 0.00 | 54 | |
| 20260502183835 | 44 | 298 | 1.0 | 2.0 | 0.00 | 0.00 | 0.00 | 53 | |
| 20260502183332 | 44 | 355 | 0.0 | 1.0 | 0.00 | 0.00 | 0.00 | 52 | |
| 20260502182826 | 44 | 2 | 2.0 | 5.0 | 0.00 | 0.00 | 0.00 | 52 | |
| 20260502182322 | 44 | 0 | 0.0 | 2.0 | 0.00 | 0.00 | 0.00 | 53 | |
| 20260502181819 | 45 | 340 | 0.0 | 2.0 | 0.00 | 0.00 | 0.00 | 53 | |
| 20260502181318 | 45 | 347 | 2.0 | 6.0 | 0.00 | 0.00 | 0.00 | 54 | |
| 20260502180815 | 44 | 356 | 0.0 | 5.0 | 0.00 | 0.00 | 0.00 | 54 | |
| 20260502180313 | 45 | 55 | 1.0 | 3.0 | 0.00 | 0.00 | 0.00 | 52 | |
| 20260502170226 | 45 | 57 | 3.0 | 3.0 | 0.00 | 0.00 | 0.00 | 54 | |
| 20260502164213 | 45 | 48 | 1.0 | 6.0 | 0.00 | 0.00 | 0.00 | 57 | |
| 20260502163708 | 45 | 356 | 3.0 | 5.0 | 0.00 | 0.00 | 0.00 | 57 | |
| 20260502163205 | 45 | 115 | 3.0 | 5.0 | 0.00 | 0.00 | 0.00 | 57 | |
| 20260502162702 | 45 | 30 | 3.0 | 5.0 | 0.00 | 0.00 | 0.00 | 56 | |
| 20260502162159 | 45 | 102 | 2.0 | 7.0 | 0.00 | 0.00 | 0.00 | 57 | |
| 20260502161656 | 45 | 347 | 0.0 | 2.0 | 0.00 | 0.00 | 0.00 | 57 | |
| 20260502161152 | 46 | 192 | 4.0 | 6.0 | 0.00 | 0.00 | 0.00 | 57 | |
| 20260502160651 | 44 | 347 | 1.0 | 5.0 | 0.00 | 0.00 | 0.00 | 61 | |
| 20260502160150 | 44 | 4 | 1.0 | 2.0 | 0.00 | 0.00 | 0.00 | 64 | |
| 20260502152103 | 41 | 43 | 1.0 | 3.0 | 0.00 | 0.00 | 0.00 | 75 | |
| 20260502151600 | 42 | 6 | 1.0 | 3.0 | 0.00 | 0.00 | 0.00 | 73 | |
| 20260502151058 | 42 | 349 | 1.0 | 2.0 | 0.00 | 0.00 | 0.00 | 72 | |
| 20260502150555 | 42 | 342 | 2.0 | 5.0 | 0.00 | 0.00 | 0.00 | 71 | |
| 20260502130440 | 39 | 45 | 1.0 | 7.0 | 0.00 | 0.00 | 0.00 | 75 | |
| 20260502123423 | 39 | 14 | 1.0 | 5.0 | 0.00 | 0.00 | 0.00 | 75 | |
| 20260502122920 | 38 | 30 | 3.0 | 8.0 | 0.00 | 0.00 | 0.00 | 76 | |
| 20260502122416 | 38 | 25 | 1.0 | 5.0 | 0.00 | 0.00 | 0.00 | 76 | |
| 20260502121914 | 37 | 30 | 0.0 | 6.0 | 0.00 | 0.00 | 0.00 | 77 | |
| 20260502121411 | 37 | 92 | 1.0 | 7.0 | 0.00 | 0.00 | 0.00 | 77 | |
| 20260502120909 | 37 | 58 | 3.0 | 7.0 | 0.00 | 0.00 | 0.00 | 77 | |
| 20260502120404 | 37 | 304 | 3.0 | 7.0 | 0.00 | 0.00 | 0.00 | 78 | |
| 20260502115902 | 37 | 337 | 3.0 | 6.0 | 0.00 | 0.00 | 0.00 | 78 | |
| 20260502115359 | 36 | 9 | 0.0 | 3.0 | 0.00 | 0.00 | 0.00 | 78 | |
| 20260502114855 | 36 | 319 | 1.0 | 3.0 | 0.00 | 0.00 | 0.00 | 79 | |
| 20260502114352 | 36 | 45 | 1.0 | 6.0 | 0.00 | 0.00 | 0.00 | 79 | |
| 20260502113849 | 35 | 53 | 1.0 | 5.0 | 0.00 | 0.00 | 0.00 | 79 | |
| 20260502113347 | 35 | 68 | 4.0 | 6.0 | 0.00 | 0.00 | 0.00 | 79 | |
| 20260502112845 | 35 | 0 | 3.0 | 6.0 | 0.00 | 0.00 | 0.00 | 79 | |
| 20260502112342 | 35 | 49 | 5.0 | 6.0 | 0.00 | 0.00 | 0.00 | 80 | |
| 20260502111839 | 34 | 35 | 2.0 | 5.0 | 0.00 | 0.00 | 0.00 | 80 | |
| 20260502111337 | 34 | 340 | 2.0 | 9.0 | 0.00 | 0.00 | 0.00 | 80 | |
| 20260502110834 | 34 | 103 | 6.0 | 9.0 | 0.00 | 0.00 | 0.00 | 81 | |
| 20260502110332 | 34 | 4 | 2.0 | 5.0 | 0.00 | 0.00 | 0.00 | 80 | |
| 20260502105829 | 33 | 51 | 2.0 | 8.0 | 0.00 | 0.00 | 0.00 | 81 | |
| 20260502105326 | 33 | 21 | 1.0 | 5.0 | 0.00 | 0.00 | 0.00 | 82 | |
| 20260502104824 | 33 | 18 | 2.0 | 2.0 | 0.00 | 0.00 | 0.00 | 82 | |
| 20260502104321 | 33 | 31 | 2.0 | 3.0 | 0.00 | 0.00 | 0.00 | 83 | |
| 20260502103818 | 33 | 19 | 0.0 | 2.0 | 0.00 | 0.00 | 0.00 | 83 | |
| 20260502103315 | 33 | 353 | 1.0 | 2.0 | 0.00 | 0.00 | 0.00 | 83 | |
| 20260502102813 | 33 | 14 | 0.0 | 2.0 | 0.00 | 0.00 | 0.00 | 83 | |
| 20260502102309 | 33 | 11 | 2.0 | 3.0 | 0.00 | 0.00 | 0.00 | 83 | |
| 20260502101807 | 33 | 48 | 1.0 | 3.0 | 0.00 | 0.00 | 0.00 | 83 | |
| 20260502101305 | 33 | 358 | 0.0 | 5.0 | 0.00 | 0.00 | 0.00 | 84 | |
| 20260502100803 | 33 | 100 | 2.0 | 3.0 | 0.00 | 0.00 | 0.00 | 84 | |
| 20260502100302 | 33 | 9 | 3.0 | 3.0 | 0.00 | 0.00 | 0.00 | 84 | |
| 20260502091235 | 33 | 47 | 3.0 | 5.0 | 0.00 | 0.00 | 0.00 | 84 | |
| 20260502090733 | 33 | 15 | 1.0 | 3.0 | 0.00 | 0.00 | 0.00 | 84 | |
| 20260502090229 | 33 | 61 | 0.0 | 2.0 | 0.00 | 0.00 | 0.00 | 84 | |
| 20260502071130 | 33 | 56 | 4.0 | 7.0 | 0.00 | 0.00 | 0.00 | 84 | |
| 20260502070628 | 33 | 82 | 1.0 | 5.0 | 0.00 | 0.00 | 0.00 | 84 | |
| 20260502070126 | 33 | 83 | 1.0 | 2.0 | 0.00 | 0.00 | 0.00 | 85 | |
| 20260502065624 | 33 | 144 | 3.0 | 5.0 | 0.00 | 0.00 | 0.00 | 85 | |
| 20260502065121 | 33 | 346 | 3.0 | 6.0 | 0.00 | 0.00 | 0.00 | 85 | |
| 20260502064620 | 33 | 24 | 3.0 | 6.0 | 0.00 | 0.00 | 0.00 | 85 | |
| 20260502064117 | 33 | 25 | 3.0 | 5.0 | 0.00 | 0.00 | 0.00 | 85 | |
| 20260502063614 | 33 | 279 | 1.0 | 5.0 | 0.00 | 0.00 | 0.00 | 85 | |
| 20260502063112 | 33 | 342 | 1.0 | 3.0 | 0.00 | 0.00 | 0.00 | 85 | |
| 20260502062609 | 33 | 21 | 0.0 | 5.0 | 0.00 | 0.00 | 0.00 | 85 | |
| 20260502062106 | 33 | 261 | 1.0 | 2.0 | 0.00 | 0.00 | 0.00 | 85 | |
| 20260502061604 | 33 | 17 | 1.0 | 5.0 | 0.00 | 0.00 | 0.00 | 85 | |
| 20260502061101 | 34 | 329 | 1.0 | 1.0 | 0.00 | 0.00 | 0.00 | 85 | |
| 20260502060556 | 34 | 42 | 2.0 | 6.0 | 0.00 | 0.00 | 0.00 | 85 | |
| 20260502060053 | 34 | 67 | 0.0 | 2.0 | 0.00 | 0.00 | 0.00 | 85 | |
| 20260502055551 | 34 | 3 | 1.0 | 3.0 | 0.00 | 0.00 | 0.00 | 85 | |
| 20260502055049 | 34 | 50 | 2.0 | 5.0 | 0.00 | 0.00 | 0.00 | 84 | |
| 20260502054548 | 34 | 29 | 2.0 | 5.0 | 0.00 | 0.00 | 0.00 | 84 | |
| 20260502054044 | 34 | 341 | 0.0 | 1.0 | 0.00 | 0.00 | 0.00 | 84 | |
| 20260502053541 | 34 | 18 | 0.0 | 2.0 | 0.00 | 0.00 | 0.00 | 83 | |
| 20260502053039 | 34 | 22 | 2.0 | 3.0 | 0.00 | 0.00 | 0.00 | 83 | |
| 20260502052538 | 34 | 35 | 3.0 | 6.0 | 0.00 | 0.00 | 0.00 | 83 | |
| 20260502052035 | 35 | 35 | 2.0 | 3.0 | 0.00 | 0.00 | 0.00 | 83 | |
| 20260502051533 | 35 | 22 | 2.0 | 5.0 | 0.00 | 0.00 | 0.00 | 82 | |
| 20260502051030 | 35 | 46 | 2.0 | 6.0 | 0.00 | 0.00 | 0.00 | 82 | |
| 20260502050526 | 35 | 52 | 1.0 | 7.0 | 0.00 | 0.00 | 0.00 | 82 | |
| 20260502050024 | 35 | 44 | 2.0 | 2.0 | 0.00 | 0.00 | 0.00 | 82 | |
| 20260502045520 | 35 | 17 | 1.0 | 5.0 | 0.00 | 0.00 | 0.00 | 82 | |
| 20260502045017 | 35 | 0 | 1.0 | 2.0 | 0.00 | 0.00 | 0.00 | 81 | |
| 20260502044514 | 35 | 16 | 1.0 | 2.0 | 0.00 | 0.00 | 0.00 | 81 | |
| 20260502044010 | 35 | 14 | 0.0 | 1.0 | 0.00 | 0.00 | 0.00 | 80 | |
| 20260502043508 | 35 | 33 | 2.0 | 2.0 | 0.00 | 0.00 | 0.00 | 80 | |
| 20260502043004 | 35 | 8 | 0.0 | 2.0 | 0.00 | 0.00 | 0.00 | 80 | |
| 20260502042459 | 35 | 32 | 1.0 | 2.0 | 0.00 | 0.00 | 0.00 | 80 | |
| 20260502041957 | 35 | 11 | 0.0 | 3.0 | 0.00 | 0.00 | 0.00 | 79 | |
| 20260502041455 | 35 | 50 | 2.0 | 2.0 | 0.00 | 0.00 | 0.00 | 79 | |
| 20260502040951 | 35 | 0 | 0.0 | 2.0 | 0.00 | 0.00 | 0.00 | 78 | |
| 20260502040448 | 35 | 25 | 1.0 | 1.0 | 0.00 | 0.00 | 0.00 | 78 | |
| 20260502035944 | 35 | 12 | 0.0 | 2.0 | 0.00 | 0.00 | 0.00 | 78 | |
| 20260502035440 | 36 | 353 | 0.0 | 1.0 | 0.00 | 0.00 | 0.00 | 77 | |
| 20260502034938 | 36 | 6 | 0.0 | 0.0 | 0.00 | 0.00 | 0.00 | 77 | |
| 20260502034437 | 36 | 18 | 0.0 | 0.0 | 0.00 | 0.00 | 0.00 | 76 | |
| 20260502033935 | 36 | 12 | 0.0 | 0.0 | 0.00 | 0.00 | 0.00 | 76 | |
| 20260502033432 | 36 | 3 | 0.0 | 0.0 | 0.00 | 0.00 | 0.00 | 75 | |
| 20260502032928 | 37 | 62 | 0.0 | 2.0 | 0.00 | 0.00 | 0.00 | 75 | |
| 20260502032425 | 37 | 358 | 1.0 | 2.0 | 0.00 | 0.00 | 0.00 | 75 | |
| 20260502031922 | 37 | 37 | 0.0 | 2.0 | 0.00 | 0.00 | 0.00 | 74 | |
| 20260502031421 | 37 | 38 | 2.0 | 2.0 | 0.00 | 0.00 | 0.00 | 74 | |
| 20260502030919 | 37 | 9 | 1.0 | 2.0 | 0.00 | 0.00 | 0.00 | 74 | |
| 20260502030417 | 37 | 12 | 1.0 | 3.0 | 0.00 | 0.00 | 0.00 | 74 | |
| 20260502025914 | 37 | 54 | 3.0 | 3.0 | 0.00 | 0.00 | 0.00 | 73 | |
| 20260502025411 | 37 | 10 | 1.0 | 6.0 | 0.00 | 0.00 | 0.00 | 73 | |
| 20260502024909 | 37 | 358 | 2.0 | 5.0 | 0.00 | 0.00 | 0.00 | 72 | |
| 20260502024407 | 37 | 45 | 3.0 | 3.0 | 0.00 | 0.00 | 0.00 | 72 | |
| 20260502023904 | 38 | 59 | 2.0 | 3.0 | 0.00 | 0.00 | 0.00 | 72 | |
| 20260502023402 | 38 | 70 | 1.0 | 5.0 | 0.00 | 0.00 | 0.00 | 71 | |
| 20260502022859 | 38 | 21 | 0.0 | 3.0 | 0.00 | 0.00 | 0.00 | 71 | |
| 20260502022355 | 38 | 15 | 1.0 | 2.0 | 0.00 | 0.00 | 0.00 | 71 | |
| 20260502021852 | 38 | 79 | 1.0 | 3.0 | 0.00 | 0.00 | 0.00 | 71 | |
| 20260502021350 | 38 | 30 | 2.0 | 3.0 | 0.00 | 0.00 | 0.00 | 70 | |
| 20260502020847 | 39 | 83 | 1.0 | 7.0 | 0.00 | 0.00 | 0.00 | 70 | |
| 20260502020344 | 39 | 2 | 2.0 | 6.0 | 0.00 | 0.00 | 0.00 | 69 | |
| 20260502015841 | 39 | 46 | 2.0 | 2.0 | 0.00 | 0.00 | 0.00 | 69 | |
| 20260502015338 | 39 | 5 | 2.0 | 6.0 | 0.00 | 0.00 | 0.00 | 69 | |
| 20260502014836 | 39 | 40 | 1.0 | 6.0 | 0.00 | 0.00 | 0.00 | 68 | |
| 20260502014333 | 39 | 69 | 3.0 | 7.0 | 0.00 | 0.00 | 0.00 | 68 | |
| 20260502013828 | 40 | 332 | 3.0 | 8.0 | 0.00 | 0.00 | 0.00 | 67 | |
| 20260502013324 | 40 | 47 | 4.0 | 7.0 | 0.00 | 0.00 | 0.00 | 66 | |
| 20260502012821 | 40 | 61 | 4.0 | 8.0 | 0.00 | 0.00 | 0.00 | 65 | |
| 20260502012319 | 40 | 38 | 5.0 | 9.0 | 0.00 | 0.00 | 0.00 | 64 | |
| 20260502011816 | 41 | 61 | 4.0 | 8.0 | 0.00 | 0.00 | 0.00 | 64 | |
| 20260502011312 | 41 | 39 | 6.0 | 8.0 | 0.00 | 0.00 | 0.00 | 65 | |
| 20260502010809 | 42 | 40 | 2.0 | 11.0 | 0.00 | 0.00 | 0.00 | 64 | |
| 20260502010306 | 42 | 2 | 3.0 | 8.0 | 0.00 | 0.00 | 0.00 | 61 | |
| 20260502005803 | 42 | 43 | 2.0 | 8.0 | 0.00 | 0.00 | 0.00 | 59 | |
| 20260502005301 | 43 | 109 | 3.0 | 8.0 | 0.00 | 0.00 | 0.00 | 58 |